When you browse on this site, cookies collect data to enhance your experience and personalize the content and advertising you see.
Visit our Privacy Policy to learn more. By continuing to use the site, you agree to this use of cookies and data.
  • In Belgium
  • List of Countries
  • For 7 days
  • Water Temperature
  • Satellite Maps
  • Weather Map
  • Weather Widgets
  • user-avatar
    Login

    Hourly Weather Lang Son

    Today, 19 February, Tuesday

    Time Temperature Precipitation Wind Pressure Humidity
    00:00 +19°C° 0 mm 1 mps 731 mmHg 93%
    01:00 +17°C° 0 mm 2 mps 731 mmHg 91%
    02:00 +16°C° 0 mm 2 mps 731 mmHg 91%
    03:00 +16°C° 0 mm 2 mps 731 mmHg 90%
    04:00 +16°C° 0 mm 2 mps 731 mmHg 89%
    05:00 +16°C° 0 mm 2 mps 731 mmHg 89%
    06:00 +16°C° 0 mm 1 mps 732 mmHg 89%
    07:00 +16°C° 0 mm 1 mps 732 mmHg 88%
    08:00 +16°C° 0.1 mm 1 mps 732 mmHg 88%
    09:00 +18°C° 0.1 mm 1 mps 733 mmHg 87%
    10:00 +18°C° 0.1 mm 1 mps 733 mmHg 86%
    11:00 +18°C° 0.1 mm 1 mps 733 mmHg 86%
    12:00 +19°C° 0.1 mm 1 mps 732 mmHg 86%
    13:00 +19°C° 0.1 mm 1 mps 732 mmHg 86%
    14:00 +20°C° 0 mm 1 mps 732 mmHg 85%
    15:00 +21°C° 0 mm 1 mps 731 mmHg 84%
    16:00 +22°C° 0 mm 1 mps 731 mmHg 83%
    17:00 +22°C° 0 mm 1 mps 731 mmHg 87%
    18:00 +21°C° 0 mm 1 mps 731 mmHg 91%
    19:00 +21°C° 0 mm 1 mps 731 mmHg 94%
    20:00 +21°C° 0 mm 1 mps 732 mmHg 95%
    21:00 +18°C° 0 mm 0 mps 732 mmHg 96%
    22:00 +18°C° 0 mm 0 mps 733 mmHg 97%
    23:00 +18°C° 0 mm 0 mps 733 mmHg 97%

    Tomorrow, 20 February, Wednesday

    Time Temperature Precipitation Wind Pressure Humidity
    00:00 +20°C° 0 mm 1 mps 733 mmHg 97%
    01:00 +20°C° 0 mm 1 mps 733 mmHg 98%
    02:00 +20°C° 0 mm 1 mps 733 mmHg 98%
    03:00 +20°C° 0 mm 1 mps 732 mmHg 98%
    04:00 +20°C° 0 mm 1 mps 732 mmHg 98%
    05:00 +21°C° 0.1 mm 1 mps 732 mmHg 98%
    06:00 +21°C° 0.1 mm 1 mps 733 mmHg 98%
    07:00 +22°C° 0.1 mm 1 mps 733 mmHg 98%
    08:00 +23°C° 0.1 mm 2 mps 734 mmHg 93%
    09:00 +24°C° 0.1 mm 2 mps 734 mmHg 89%
    10:00 +25°C° 0.1 mm 3 mps 735 mmHg 85%
    11:00 +25°C° 0.1 mm 3 mps 734 mmHg 84%
    12:00 +25°C° 0.1 mm 3 mps 733 mmHg 84%
    13:00 +26°C° 0.1 mm 4 mps 733 mmHg 83%
    14:00 +26°C° 0.1 mm 4 mps 732 mmHg 83%
    15:00 +26°C° 0.1 mm 4 mps 731 mmHg 83%
    16:00 +26°C° 0.1 mm 4 mps 731 mmHg 82%
    17:00 +25°C° 0 mm 4 mps 731 mmHg 85%
    18:00 +24°C° 0 mm 3 mps 731 mmHg 89%
    19:00 +22°C° 0 mm 3 mps 732 mmHg 92%
    20:00 +23°C° 0 mm 2 mps 732 mmHg 93%
    21:00 +23°C° 0 mm 2 mps 733 mmHg 94%
    22:00 +22°C° 0 mm 1 mps 733 mmHg 96%
    23:00 +21°C° 0 mm 2 mps 733 mmHg 95%

    Day after tomorrow, 21 February, Thursday

    Time Temperature Precipitation Wind Pressure Humidity
    00:00 +23°C° 0 mm 2 mps 733 mmHg 95%
    01:00 +23°C° 0 mm 2 mps 732 mmHg 95%
    02:00 +22°C° 0.1 mm 3 mps 732 mmHg 95%
    03:00 +22°C° 0.1 mm 3 mps 732 mmHg 94%
    04:00 +22°C° 0.1 mm 3 mps 731 mmHg 94%
    05:00 +22°C° 0.1 mm 3 mps 732 mmHg 94%
    06:00 +22°C° 0.1 mm 3 mps 732 mmHg 93%
    07:00 +22°C° 0.1 mm 3 mps 732 mmHg 93%
    08:00 +24°C° 0.1 mm 3 mps 733 mmHg 91%
    09:00 +24°C° 0.1 mm 3 mps 733 mmHg 90%
    10:00 +25°C° 0.1 mm 3 mps 734 mmHg 88%
    11:00 +26°C° 0 mm 3 mps 733 mmHg 84%
    12:00 +27°C° 0 mm 4 mps 733 mmHg 79%
    13:00 +28°C° 0 mm 4 mps 732 mmHg 75%
    14:00 +27°C° 0 mm 3 mps 731 mmHg 76%
    15:00 +27°C° 0 mm 3 mps 731 mmHg 76%
    16:00 +27°C° 0 mm 2 mps 730 mmHg 77%
    17:00 +26°C° 0 mm 2 mps 731 mmHg 82%
    18:00 +25°C° 0 mm 1 mps 731 mmHg 86%
    19:00 +24°C° 0 mm 1 mps 731 mmHg 91%
    20:00 +23°C° 0 mm 1 mps 732 mmHg 92%
    21:00 +23°C° 0 mm 1 mps 732 mmHg 93%
    22:00 +22°C° 0 mm 1 mps 732 mmHg 95%
    23:00 +20°C° 0 mm 0 mps 732 mmHg 95%

    22 February, Friday

    Time Temperature Precipitation Wind Pressure Humidity
    00:00 +20°C° 0 mm 0 mps 732 mmHg 96%
    01:00 +19°C° 0 mm 0 mps 732 mmHg 97%
    02:00 +19°C° 0 mm 0 mps 732 mmHg 97%
    03:00 +19°C° 0 mm 0 mps 731 mmHg 96%
    04:00 +19°C° 0 mm 0 mps 731 mmHg 96%
    05:00 +19°C° 0 mm 0 mps 732 mmHg 96%
    06:00 +19°C° 0 mm 0 mps 732 mmHg 96%
    07:00 +21°C° 0 mm 1 mps 733 mmHg 96%
    08:00 +22°C° 0.1 mm 1 mps 733 mmHg 93%
    09:00 +22°C° 0.1 mm 1 mps 734 mmHg 89%
    10:00 +23°C° 0.1 mm 1 mps 734 mmHg 86%
    11:00 +24°C° 0 mm 1 mps 734 mmHg 81%
    12:00 +26°C° 0 mm 1 mps 733 mmHg 76%
    13:00 +27°C° 0 mm 1 mps 733 mmHg 71%
    14:00 +26°C° 0.2 mm 1 mps 732 mmHg 73%
    15:00 +26°C° 0.2 mm 1 mps 732 mmHg 75%
    16:00 +26°C° 0.2 mm 1 mps 731 mmHg 78%
    17:00 +25°C° 0.1 mm 1 mps 731 mmHg 81%
    18:00 +24°C° 0.1 mm 1 mps 732 mmHg 84%
    19:00 +24°C° 0.1 mm 1 mps 732 mmHg 87%
    20:00 +23°C° 0 mm 1 mps 732 mmHg 88%
    21:00 +21°C° 0 mm 0 mps 733 mmHg 90%
    22:00 +20°C° 0 mm 0 mps 733 mmHg 92%
    23:00 +20°C° 0 mm 0 mps 733 mmHg 92%

    23 February, Saturday

    Time Temperature Precipitation Wind Pressure Humidity
    00:00 +20°C° 0 mm 0 mps 732 mmHg 93%
    01:00 +19°C° 0 mm 0 mps 732 mmHg 93%
    02:00 +19°C° 0 mm 0 mps 732 mmHg 94%
    03:00 +21°C° 0 mm 1 mps 731 mmHg 94%
    04:00 +21°C° 0 mm 1 mps 731 mmHg 94%
    05:00 +21°C° 0 mm 1 mps 732 mmHg 93%
    06:00 +21°C° 0 mm 1 mps 732 mmHg 92%
    07:00 +22°C° 0 mm 1 mps 732 mmHg 92%
    08:00 +22°C° 0.1 mm 1 mps 733 mmHg 90%
    09:00 +23°C° 0.1 mm 1 mps 733 mmHg 89%
    10:00 +23°C° 0.1 mm 1 mps 734 mmHg 87%
    11:00 +24°C° 0.2 mm 2 mps 733 mmHg 86%
    12:00 +24°C° 0.2 mm 2 mps 732 mmHg 84%
    13:00 +25°C° 0.2 mm 3 mps 731 mmHg 83%
    14:00 +25°C° 0.1 mm 3 mps 731 mmHg 82%
    15:00 +25°C° 0.1 mm 3 mps 730 mmHg 81%
    16:00 +25°C° 0.1 mm 3 mps 730 mmHg 80%
    17:00 +24°C° 0 mm 3 mps 730 mmHg 82%
    18:00 +24°C° 0 mm 3 mps 730 mmHg 84%
    19:00 +23°C° 0 mm 2 mps 731 mmHg 86%
    20:00 +21°C° 0 mm 2 mps 731 mmHg 88%
    21:00 +22°C° 0 mm 1 mps 732 mmHg 90%
    22:00 +22°C° 0 mm 1 mps 732 mmHg 92%
    23:00 +22°C° 0 mm 1 mps 732 mmHg 92%

    24 February, Sunday

    Time Temperature Precipitation Wind Pressure Humidity
    00:00 +22°C° 0 mm 1 mps 731 mmHg 92%
    01:00 +22°C° 0 mm 1 mps 731 mmHg 92%
    02:00 +22°C° 0.1 mm 1 mps 731 mmHg 92%
    03:00 +22°C° 0.1 mm 1 mps 731 mmHg 92%
    04:00 +22°C° 0.1 mm 1 mps 731 mmHg 92%
    05:00 +22°C° 0.1 mm 1 mps 731 mmHg 92%
    06:00 +22°C° 0.1 mm 1 mps 731 mmHg 92%
    07:00 +22°C° 0.1 mm 1 mps 732 mmHg 92%
    08:00 +23°C° 0.1 mm 2 mps 732 mmHg 88%
    09:00 +24°C° 0.1 mm 3 mps 733 mmHg 84%
    10:00 +25°C° 0.1 mm 3 mps 733 mmHg 79%
    11:00 +25°C° 0.2 mm 3 mps 732 mmHg 79%
    12:00 +25°C° 0.2 mm 3 mps 731 mmHg 79%
    13:00 +26°C° 0.2 mm 3 mps 731 mmHg 79%
    14:00 +26°C° 0.1 mm 4 mps 730 mmHg 76%
    15:00 +26°C° 0.1 mm 4 mps 730 mmHg 74%
    16:00 +27°C° 0.1 mm 4 mps 729 mmHg 71%
    17:00 +26°C° 0 mm 4 mps 730 mmHg 76%
    18:00 +25°C° 0 mm 3 mps 730 mmHg 80%
    19:00 +23°C° 0 mm 2 mps 730 mmHg 85%
    20:00 +23°C° 0 mm 2 mps 730 mmHg 87%
    21:00 +21°C° 0 mm 2 mps 731 mmHg 90%
    22:00 +22°C° 0 mm 1 mps 731 mmHg 92%
    23:00 +22°C° 0.2 mm 1 mps 731 mmHg 93%
    Show more